Theta_e
314 314 314 315 314 319 323 322 326 330 331 329 329 328 325 324 324 325 323 322 323 320 319 320 320 320 320 321 321 321 320 321 321 323 328 328 320 320 321 320 321 320 319 319 323 324 326 329 329 330 329 329 328 328 328 327 327 329 331 329 325 325 324 322 322 320 320 320 320 321 322 324 323 322 322 322 321 320 321 321 321 322 323 327 331 334 333 334 334 332 329 329 332 332 332 330 328
314 314 314 315 318 323 323 322 327 330 331 326 325 324 322 326 326 323 323 322 323 320 320 320 320 320 319 320 319 320 321 321 321 321 324 322 320 321 320 320 320 320 320 318 320 323 324 327 328 328 329 328 328 328 327 327 327 329 330 326 324 323 323 322 321 320 320 320 321 322 325 326 324 324 324 324 323 322 322 322 322 324 326 327 330 333 334 334 333 330 328 329 332 333 332 332 330
313 313 314 316 321 323 324 327 331 329 327 322 321 325 321 323 323 321 323 321 321 320 320 320 321 321 319 321 320 321 321 320 321 321 321 321 322 321 319 319 320 320 320 319 319 321 322 325 326 327 328 328 327 327 327 327 327 329 329 325 323 323 322 321 321 321 321 321 321 323 326 325 324 325 327 328 327 326 326 326 324 326 329 329 331 333 334 334 329 326 327 329 332 332 332 332 332
313 314 316 319 322 325 328 329 333 326 322 322 320 323 322 321 322 321 321 320 321 321 320 321 321 321 320 321 321 320 320 320 321 321 322 323 323 320 318 319 320 320 320 320 318 319 321 323 325 326 327 327 327 327 327 326 326 328 328 325 324 323 322 321 321 321 321 322 323 324 325 325 326 329 330 331 330 328 328 328 326 328 331 331 332 332 333 330 325 323 325 328 331 331 331 331 332
313 314 316 321 324 325 328 327 329 322 320 325 320 319 321 320 322 321 320 320 321 320 320 320 321 321 321 321 321 320 320 320 320 320 321 321 320 318 318 318 319 320 320 321 319 319 319 321 324 325 326 326 326 326 326 326 326 327 328 326 325 324 323 323 322 322 322 323 323 324 325 327 329 330 332 331 329 328 327 327 327 330 332 332 332 332 331 327 324 322 322 325 327 326 328 330 331
316 317 316 319 322 321 325 326 328 326 324 327 320 319 320 319 321 319 320 320 320 321 320 320 320 321 320 321 320 320 320 320 319 319 318 318 318 317 317 317 318 319 320 321 320 319 318 320 322 325 326 326 325 325 325 326 326 327 327 326 326 325 325 325 324 323 323 323 324 324 325 329 330 331 333 331 328 328 327 327 328 329 331 331 332 331 328 325 322 319 318 320 321 320 323 326 327
322 323 320 320 322 320 324 324 327 328 327 325 319 320 319 318 320 319 321 320 320 321 320 321 320 320 320 320 320 320 320 319 318 318 317 317 317 317 316 316 317 318 320 321 321 320 318 318 320 323 326 326 325 325 325 325 326 326 326 326 326 327 327 328 327 324 323 324 325 324 325 329 331 333 334 331 328 328 327 326 327 328 328 328 329 328 326 324 321 315 313 314 315 316 317 319 320
322 322 320 324 326 324 325 325 327 327 325 323 319 320 318 319 319 320 321 319 321 321 320 321 319 320 321 320 320 320 320 319 317 317 317 317 317 317 316 316 316 317 319 320 321 321 319 318 318 321 324 326 326 325 325 325 325 325 326 326 326 328 329 330 330 328 325 325 326 324 325 330 332 333 333 331 329 327 326 326 326 328 328 328 327 327 326 325 321 315 311 311 312 313 313 313 313
321 322 320 324 327 327 328 328 328 326 324 321 318 319 319 320 320 320 321 320 320 320 321 321 320 321 320 319 320 320 320 319 318 317 316 316 316 316 317 316 316 316 318 320 321 321 320 319 317 318 321 324 325 325 325 325 325 325 325 325 326 327 328 330 331 330 328 328 327 324 327 332 332 333 333 331 330 328 327 328 326 327 328 328 327 327 327 326 324 317 311 310 311 311 311 311 311
322 322 320 326 330 326 329 328 326 327 324 320 318 319 319 319 320 320 320 320 320 320 321 320 320 320 320 320 319 320 321 319 318 317 317 316 316 316 316 316 316 316 317 319 320 320 321 320 318 317 319 322 323 324 324 325 325 325 324 324 325 325 326 328 330 331 330 329 326 324 327 331 331 333 333 331 331 330 329 326 324 323 323 325 326 326 326 325 324 318 311 310 310 310 310 309 308
325 322 319 326 330 325 327 326 325 328 324 320 319 319 319 319 319 320 319 320 320 319 320 320 320 320 319 319 319 321 322 320 318 317 317 316 316 316 316 316 316 316 316 318 318 320 320 320 319 318 318 319 321 321 322 324 324 324 324 323 324 324 326 326 328 329 329 328 325 323 327 331 331 333 333 331 330 330 328 324 321 319 317 319 320 321 321 320 319 315 310 309 309 308 307 306 305
324 325 323 324 326 325 325 324 324 328 327 323 320 319 319 319 319 320 319 319 318 318 319 319 320 319 319 319 320 321 322 321 319 318 317 316 317 316 316 316 316 316 316 317 317 319 320 321 320 319 319 318 319 319 319 320 322 323 324 324 323 324 326 326 328 329 328 327 324 322 326 331 332 333 333 330 329 328 327 323 319 316 313 313 313 314 314 313 312 310 309 308 306 305 304 303 303
322 325 326 327 328 324 323 324 327 330 329 323 319 319 319 319 319 319 318 318 317 318 319 319 319 319 319 320 319 320 321 321 320 319 317 316 317 316 316 316 315 316 316 316 317 317 319 320 320 320 319 318 317 317 316 317 319 321 323 324 323 323 326 327 327 327 327 325 323 322 326 331 333 333 332 330 327 326 323 320 316 313 310 309 309 310 310 310 310 308 307 305 304 304 303 303 303
321 322 323 327 330 325 323 326 326 325 326 322 318 318 318 318 319 318 319 318 317 318 320 319 318 318 318 318 319 320 320 320 320 319 318 317 317 317 316 316 315 315 316 316 316 316 317 319 320 321 320 319 318 317 315 315 316 317 319 321 321 322 325 326 325 325 325 323 321 323 327 331 332 332 331 330 327 323 320 317 314 311 308 308 309 310 309 309 307 306 305 304 304 303 303 304 304
319 321 323 326 329 328 326 325 326 324 323 323 319 317 318 317 318 318 318 318 318 318 318 318 317 318 318 317 319 320 319 319 319 319 318 317 317 317 316 316 316 315 315 315 315 316 316 317 318 320 320 320 319 318 316 315 315 315 316 317 318 320 322 321 321 323 324 320 321 325 328 330 332 332 331 330 327 322 318 314 312 309 307 308 308 309 308 307 305 304 304 304 304 304 304 305 306
318 320 326 327 328 328 326 324 327 326 321 320 318 318 318 318 318 318 318 318 318 318 318 318 317 317 317 317 317 318 317 317 318 318 318 317 317 317 316 316 316 315 315 315 315 315 316 316 317 318 319 320 320 319 318 316 315 315 315 315 315 317 318 318 318 322 322 319 323 328 328 330 332 332 331 329 326 320 315 312 311 309 307 307 306 306 306 305 305 304 304 304 304 304 305 306 306
318 322 327 327 329 328 328 324 321 323 320 318 317 317 318 318 318 318 318 318 318 318 318 317 317 317 317 317 316 317 317 317 317 318 317 317 317 316 316 316 315 315 315 315 315 315 315 315 316 316 317 318 320 320 319 318 316 315 315 314 314 315 316 316 317 319 319 320 325 329 330 331 331 331 329 327 323 318 313 311 311 309 307 306 305 305 305 304 304 304 304 304 304 305 306 306 306
319 328 326 324 329 327 326 323 317 319 319 318 317 317 317 317 317 317 317 317 317 317 317 317 317 317 317 316 317 317 318 318 318 317 318 317 317 317 317 316 316 315 315 315 315 315 315 315 315 316 316 316 317 319 320 320 318 316 315 315 314 313 313 314 315 315 316 320 325 328 329 330 329 328 325 321 318 314 312 311 311 309 307 305 305 304 304 304 304 304 304 304 305 306 306 306 306
321 327 325 328 334 326 321 320 317 317 318 318 318 317 317 317 317 316 317 316 316 317 317 317 316 316 316 316 316 317 317 317 318 318 318 318 318 318 317 317 316 316 315 315 314 315 315 315 315 315 315 316 316 317 318 319 319 317 316 315 314 314 313 313 313 313 314 318 323 326 327 326 326 325 320 316 314 313 312 311 311 310 307 305 304 304 304 304 304 304 304 305 305 306 306 306 306
321 322 325 332 329 321 319 318 318 318 317 318 318 318 318 318 317 316 316 316 316 317 317 316 316 316 316 316 316 316 316 316 317 318 318 318 318 318 318 317 317 316 315 315 315 315 315 315 315 315 315 315 316 316 316 317 318 318 317 316 315 314 313 313 313 313 312 314 318 322 322 321 322 321 317 314 313 312 311 311 310 309 307 305 304 304 304 304 304 304 305 305 305 307 306 306 306
321 321 326 328 321 318 320 319 319 318 318 318 317 318 317 318 317 316 316 317 317 316 316 316 316 316 316 316 316 316 316 316 317 317 317 317 317 318 317 317 316 316 315 315 315 315 315 315 315 315 314 315 315 315 316 316 317 318 317 317 316 315 314 313 313 312 312 313 314 316 317 317 317 316 315 313 312 311 310 310 309 308 307 305 304 305 304 304 304 305 305 305 306 307 306 306 305
320 320 322 321 318 319 320 319 319 317 317 318 317 318 318 318 317 317 316 317 317 315 316 316 316 316 316 316 316 317 317 317 317 317 317 317 317 317 317 317 316 315 315 315 314 314 315 315 315 315 314 314 315 315 315 315 316 317 317 317 316 315 315 314 314 313 313 313 313 313 313 314 314 313 313 312 312 311 310 309 308 308 307 305 305 305 304 304 305 305 305 305 306 307 306 305 305
320 321 318 318 319 318 318 318 318 317 316 317 317 318 317 317 317 317 316 316 316 315 316 315 316 316 316 316 316 317 316 317 317 317 317 317 317 317 316 316 316 315 315 314 314 314 314 314 314 315 315 314 314 315 315 315 316 316 317 317 317 316 316 315 314 314 313 312 312 312 313 313 313 313 312 312 312 311 310 309 308 308 307 306 305 305 305 304 305 305 304 305 306 306 306 305 305
320 321 318 319 319 317 318 318 317 317 316 316 317 317 317 317 318 317 316 316 316 316 316 315 316 316 316 316 316 316 316 316 317 316 317 317 316 317 316 316 316 315 314 314 314 314 314 314 314 314 315 314 314 314 314 315 315 315 316 317 317 317 317 316 315 314 314 313 312 312 313 313 313 313 313 312 312 311 310 309 309 308 307 306 305 305 305 304 304 305 304 305 306 306 306 305 305
317 318 317 317 317 317 317 316 316 316 316 316 315 315 315 316 317 316 316 316 316 316 316 316 316 316 316 316 316 316 316 316 316 316 316 316 316 316 316 316 316 316 315 315 315 315 315 314 314 314 314 314 314 314 314 314 314 315 315 316 316 317 317 317 316 316 315 314 313 313 313 313 314 313 313 313 313 312 312 310 309 309 308 306 305 305 305 304 304 305 304 305 306 306 306 305 305
316 315 315 314 315 315 315 315 315 315 315 315 314 314 314 315 316 316 316 316 316 316 316 316 316 316 316 316 316 316 316 316 316 316 316 316 316 316 316 316 316 315 315 315 315 315 315 315 315 314 314 314 314 315 314 314 314 314 315 315 315 316 316 317 317 317 317 316 315 313 313 313 314 314 314 314 313 313 313 312 310 309 308 307 305 305 305 304 304 304 304 305 305 306 306 305 305
315 314 314 314 314 315 315 315 315 315 314 314 313 313 313 314 315 316 316 316 316 316 316 316 316 316 316 316 316 316 316 316 315 315 315 315 315 316 316 316 316 316 315 315 315 315 315 315 315 315 314 314 315 315 314 315 315 315 315 316 316 316 316 317 317 318 317 317 316 315 314 314 314 315 315 315 314 313 313 313 312 310 309 308 306 305 305 304 304 304 304 304 305 305 305 305 304
314 314 314 314 314 314 314 314 314 314 313 314 314 313 313 313 315 315 316 317 316 316 316 316 316 316 316 316 316 316 316 316 315 315 315 315 315 315 316 316 316 316 316 315 316 315 316 315 315 315 315 315 315 315 315 315 315 315 317 317 318 318 318 318 318 318 318 318 318 317 316 315 315 315 315 315 315 314 313 313 313 311 309 308 307 305 304 304 304 304 304 303 304 305 305 305 304
314 314 315 315 313 314 314 313 314 313 313 314 313 314 315 315 315 316 316 316 316 315 315 315 316 316 315 316 316 316 315 314 314 314 315 315 315 316 315 316 316 316 316 317 317 317 316 316 316 316 316 315 315 315 316 316 316 317 318 319 320 321 321 321 320 319 319 318 318 318 318 318 318 317 316 316 315 314 313 313 313 312 310 308 307 305 304 304 304 304 304 303 303 304 304 304 304
315 314 314 315 315 315 315 313 315 313 313 314 314 316 320 318 315 316 316 316 315 315 315 316 316 316 315 315 315 315 314 313 314 314 314 314 315 316 316 316 316 316 316 316 316 315 316 316 317 317 316 316 316 316 317 317 317 318 319 320 321 322 323 324 323 322 322 321 321 320 320 320 320 320 319 318 317 316 314 313 313 313 311 309 308 307 305 304 304 303 303 303 303 304 304 305 304
314 313 315 316 315 319 318 313 315 315 313 314 314 317 320 319 316 316 316 316 315 315 316 317 316 316 315 315 314 313 313 314 314 314 314 314 315 315 315 315 315 315 315 315 314 313 314 316 317 317 317 317 317 317 317 318 318 319 320 321 322 323 324 325 325 325 324 324 323 323 322 322 322 321 321 321 320 318 316 314 313 314 312 309 308 308 306 304 303 303 303 303 303 303 304 304 304
315 314 321 320 316 320 319 314 315 316 315 313 314 317 319 317 315 316 317 317 316 315 316 316 315 314 314 314 313 313 313 314 314 314 313 313 314 314 314 314 314 314 313 313 313 313 313 315 317 317 317 317 317 318 319 319 320 320 321 322 323 325 325 326 326 326 326 325 325 325 325 324 323 323 323 322 322 320 318 316 315 314 313 311 309 308 307 306 304 303 303 303 303 303 303 304 304
319 316 320 322 317 318 318 317 315 314 315 313 314 317 318 316 315 316 316 316 316 315 315 314 313 313 313 313 313 313 313 313 313 312 312 312 312 313 313 313 313 313 312 312 312 312 313 315 316 317 317 317 318 318 319 320 320 321 322 323 324 325 326 326 327 326 326 326 326 326 326 325 325 324 324 323 322 321 320 318 317 316 314 312 311 310 308 307 305 303 302 302 302 302 302 302 303
323 319 318 321 319 316 318 321 316 313 315 315 314 315 315 316 314 314 316 316 315 314 314 314 313 313 313 313 312 311 311 311 310 310 310 311 311 312 312 312 312 312 312 312 312 312 313 315 316 316 317 318 318 318 320 321 321 322 322 323 324 325 326 326 326 326 326 326 326 326 326 325 325 325 324 323 323 322 321 320 319 318 316 315 314 313 310 308 305 304 302 302 302 302 302 302 302
322 322 319 320 319 317 318 319 318 316 317 316 317 316 315 315 313 313 315 315 314 313 314 313 313 313 312 311 310 309 309 308 307 308 309 310 310 311 311 311 311 311 311 311 312 312 312 314 315 316 316 316 315 316 318 321 322 322 322 322 323 324 324 325 325 325 325 325 325 325 325 325 325 324 324 324 323 322 322 321 320 319 318 318 317 315 313 309 306 305 303 302 302 301 301 301 301
319 319 318 318 318 318 317 317 317 317 317 317 318 317 316 316 315 313 314 315 313 313 313 312 313 312 311 309 308 307 307 306 306 307 308 309 309 310 309 309 309 309 310 310 311 311 312 312 313 313 312 312 312 313 316 319 321 321 322 322 322 322 323 323 324 324 324 324 324 324 324 324 324 323 323 323 322 322 322 321 320 320 319 319 318 317 315 312 309 306 304 303 301 301 301 301 300
315 316 316 317 317 317 317 317 317 315 316 318 318 317 316 316 316 314 313 314 313 312 312 313 312 310 308 308 307 307 306 306 306 307 308 308 309 309 309 308 308 308 309 309 310 310 311 311 311 310 310 310 310 312 313 315 318 320 321 321 321 321 321 321 322 322 322 322 322 322 322 322 321 321 321 321 321 321 321 320 320 319 319 318 318 317 316 315 312 308 305 303 302 301 301 300 300
315 316 317 318 318 318 316 316 317 314 315 319 319 316 316 315 315 314 313 313 312 311 311 311 310 308 307 307 306 306 306 306 307 308 308 308 309 309 309 309 309 308 308 308 309 309 309 310 309 310 310 310 310 311 310 311 312 315 317 318 319 319 319 319 320 320 320 320 320 320 320 320 319 319 319 319 319 319 319 319 319 318 318 318 317 317 316 315 313 310 306 304 302 301 300 300 300
316 318 319 319 319 319 318 318 317 314 315 319 319 316 315 316 315 313 312 312 310 310 310 308 308 307 306 306 305 306 306 307 308 308 308 308 308 309 309 309 309 308 308 308 308 308 308 308 308 308 309 310 310 310 310 310 311 312 313 313 314 314 315 315 316 316 316 316 316 317 317 317 317 317 317 317 317 317 317 317 317 317 317 317 317 317 316 315 314 312 308 305 303 302 301 300 300
319 319 319 320 319 318 320 320 318 316 315 317 317 317 317 316 315 313 310 310 310 308 308 307 306 305 305 305 305 306 306 307 307 307 308 308 308 309 309 309 309 308 309 308 309 309 308 308 308 308 308 308 308 308 309 309 311 312 313 313 312 312 312 312 311 311 310 310 311 311 312 312 312 313 313 313 314 314 315 315 315 315 315 316 316 316 316 315 314 313 311 308 304 302 301 300 300
322 322 319 320 319 317 319 319 317 317 318 318 316 320 325 321 317 314 310 310 309 307 307 306 305 304 304 304 304 305 305 306 306 307 307 308 308 308 308 308 309 309 309 308 308 309 309 308 308 308 308 308 307 307 307 307 308 309 310 311 311 311 310 310 309 308 307 307 307 307 307 307 308 308 308 309 309 309 310 311 312 313 314 314 315 315 315 315 314 313 312 310 306 304 302 300 299
323 324 321 320 319 319 320 321 319 319 322 319 314 320 329 326 321 318 311 309 309 307 306 305 304 304 304 304 303 303 304 304 305 306 306 307 307 308 308 308 308 308 308 308 308 308 309 308 308 308 308 308 308 308 308 307 307 307 307 307 307 307 308 307 307 307 307 306 306 306 305 305 305 305 305 305 306 306 307 308 309 310 312 312 313 313 314 314 313 313 312 310 308 306 303 301 300
321 322 321 322 321 319 321 320 318 321 323 318 313 318 322 320 319 318 313 311 309 306 305 304 304 303 303 303 302 303 303 303 305 305 306 307 307 308 308 308 308 308 307 308 308 308 308 308 308 308 308 308 308 308 307 308 308 307 307 307 306 306 306 306 306 306 306 306 305 305 304 304 304 304 304 304 304 304 304 305 306 307 308 310 311 311 312 312 312 312 311 310 309 307 304 302 301
322 321 319 321 320 316 318 315 316 321 320 318 317 315 316 316 317 316 314 313 310 306 306 304 303 302 302 301 302 302 302 302 303 304 305 306 307 307 307 307 307 307 307 307 308 308 308 308 308 308 308 307 307 307 307 308 307 307 307 307 306 306 306 305 305 305 305 305 305 304 304 303 303 303 303 303 303 303 303 303 303 304 305 307 308 309 310 310 311 310 309 309 308 307 305 303 301
324 320 315 316 315 314 316 314 317 319 316 319 322 315 315 321 322 317 314 316 312 308 306 304 302 302 301 301 301 300 301 301 302 302 304 304 305 305 305 306 306 306 307 307 307 307 307 307 307 306 307 307 307 307 307 307 307 307 307 307 306 306 305 305 305 305 305 305 304 304 304 303 303 303 302 302 302 302 302 302 302 303 303 303 305 306 307 308 308 309 308 307 307 307 306 304 302
317 317 317 319 318 316 316 315 317 316 315 320 323 317 316 323 329 321 314 317 316 309 306 304 302 301 300 300 300 299 300 300 300 300 302 302 303 303 304 305 305 305 306 306 306 306 306 306 306 306 306 306 306 306 306 306 306 307 307 306 306 306 305 305 305 304 304 304 304 304 303 303 303 302 302 302 302 302 302 302 302 302 302 302 302 303 304 305 306 307 307 307 306 306 305 304 303
312 316 321 323 322 320 318 318 318 315 319 325 322 319 317 321 332 325 315 318 315 309 306 303 301 300 299 299 298 298 299 299 299 299 300 301 302 302 303 304 304 304 305 305 305 305 305 305 304 305 305 305 305 305 305 305 305 306 306 306 306 305 305 305 305 305 304 304 303 303 303 303 303 302 302 302 301 301 301 301 301 301 301 301 301 301 302 302 303 304 305 305 305 305 304 304 302
313 319 322 322 324 325 320 320 320 317 324 331 324 320 316 318 329 323 314 314 312 308 306 303 301 300 298 297 298 297 298 299 299 300 301 302 302 303 304 304 304 304 304 304 304 304 304 304 303 304 304 304 304 304 304 304 304 304 304 304 304 304 304 304 304 304 304 304 303 303 303 302 302 302 302 302 302 302 301 301 301 300 300 300 301 301 301 301 301 301 302 302 303 304 304 303 302
316 319 320 321 323 325 323 321 321 321 326 327 322 321 318 318 324 318 311 309 308 307 305 302 300 299 297 297 297 297 298 300 300 301 302 303 303 304 304 304 304 303 303 303 303 303 303 303 303 303 303 303 303 303 303 303 303 303 303 303 303 302 302 302 302 302 302 302 303 303 303 302 302 302 301 302 302 302 302 301 301 300 300 300 300 300 300 300 300 300 300 300 301 301 302 302 302
315 316 320 323 322 322 325 323 320 321 324 323 320 320 321 323 320 311 306 304 303 303 302 300 300 298 297 296 296 297 299 301 301 302 303 303 303 303 303 303 303 302 302 302 302 302 302 302 302 302 302 302 302 302 302 302 302 302 302 302 301 301 301 300 300 300 300 301 301 301 302 302 302 302 301 301 301 301 301 301 301 301 300 300 300 300 300 300 300 300 300 300 300 300 300 300 301
313 317 320 323 325 324 323 322 320 322 325 325 320 319 324 328 317 305 302 301 300 301 300 299 299 298 297 296 296 298 300 301 302 302 302 302 302 302 302 302 301 301 301 300 300 300 300 300 300 300 300 300 300 300 300 301 300 300 300 300 300 299 299 299 299 298 298 298 299 299 299 300 300 300 300 300 300 300 301 301 301 301 301 300 300 300 300 300 300 299 299 299 299 299 299 299 299
313 316 319 321 324 324 321 322 321 320 323 323 320 322 324 318 308 302 302 301 300 300 299 299 298 297 297 297 297 299 300 301 301 301 302 301 301 301 300 300 300 299 299 299 299 298 298 298 298 298 298 298 298 298 298 298 298 298 298 298 298 298 297 297 297 297 296 296 296 297 297 297 298 298 298 299 299 299 299 300 300 300 300 300 300 300 300 300 299 299 299 299 299 299 299 298 298
317 316 320 323 323 321 320 322 321 318 319 320 319 322 319 311 307 304 302 301 300 299 298 298 298 297 297 298 298 299 300 301 301 301 301 300 300 299 299 299 298 298 298 297 297 296 296 295 295 295 295 296 296 296 296 295 295 295 295 295 295 295 296 296 295 295 295 295 295 295 295 295 295 295 295 296 296 297 297 298 298 299 299 299 300 300 300 300 299 299 299 299 299 299 298 298 298
319 318 321 320 318 320 320 321 321 319 319 320 319 319 317 315 313 306 303 303 301 299 298 297 297 297 297 298 299 300 301 301 301 300 300 299 299 298 297 297 296 296 296 295 294 294 293 293 293 293 293 293 293 293 293 293 293 293 293 293 293 293 293 293 293 293 293 293 293 293 293 293 292 292 292 293 293 294 295 295 296 297 297 298 298 299 299 299 299 299 299 299 299 298 298 298 298
314 316 317 316 317 320 320 319 320 319 317 319 320 319 318 319 316 308 305 305 302 300 299 298 297 297 297 298 300 301 301 301 301 300 299 299 298 297 296 295 294 294 293 292 292 291 291 291 291 290 290 290 290 290 290 291 291 291 291 291 291 291 291 291 291 291 291 291 292 292 292 292 291 291 290 290 290 291 291 292 293 294 295 295 296 296 297 298 298 299 299 299 299 298 298 298 298
312 313 316 317 317 318 318 319 320 319 316 317 318 317 317 318 315 310 308 304 301 300 301 299 298 297 298 300 301 301 301 300 300 299 298 297 297 296 296 295 293 292 291 290 290 290 290 289 289 289 289 289 289 289 289 289 290 290 290 290 290 290 290 290 290 290 289 290 290 290 290 290 290 290 290 289 289 289 289 289 289 290 291 292 293 293 294 295 296 296 297 298 298 298 298 298 298
315 316 316 316 317 318 317 317 318 318 317 317 316 316 318 315 308 307 307 304 300 300 301 300 298 298 300 301 301 301 301 300 300 299 298 297 297 296 295 293 292 290 290 289 289 289 289 289 289 289 289 289 289 289 289 289 289 289 289 289 289 289 289 289 289 289 289 289 289 289 289 289 288 288 288 289 289 289 288 288 288 288 288 288 289 290 291 291 292 293 294 295 296 296 297 297 297
320 319 319 319 319 318 317 316 317 317 317 318 316 317 318 312 305 304 304 302 300 299 300 299 299 301 302 301 302 301 300 300 299 298 297 296 294 293 291 290 289 289 289 289 289 289 289 289 289 289 289 289 289 289 289 289 289 289 289 289 289 289 289 289 289 289 289 289 289 289 289 289 288 288 288 288 288 288 288 288 288 288 288 288 288 288 288 288 289 290 291 292 293 293 294 296 296
Wind_Speed
8 7 7 7 7 4 6 8 3 2 3 1 4 0 3 2 2 3 3 2 2 1 3 2 2 3 2 1 3 4 5 5 4 3 3 4 3 1 2 3 3 2 3 7 11 13 15 17 18 17 17 17 16 16 16 15 13 14 14 13 13 13 13 14 13 12 11 10 9 8 6 5 5 5 5 6 6 7 7 7 7 7 7 6 7 7 6 5 4 3 1 1 2 1 3 3 3
7 6 5 5 4 4 5 6 2 2 5 2 4 1 2 4 4 3 3 3 2 1 3 3 1 2 2 3 3 3 4 5 4 4 5 5 3 2 2 3 4 3 3 6 10 13 15 17 18 17 17 17 16 16 16 15 14 14 14 14 14 14 14 14 13 11 10 9 8 8 6 5 4 4 5 6 7 7 8 8 8 7 7 7 6 6 6 5 4 2 1 2 2 1 1 2 1
5 4 3 3 2 5 6 4 3 2 4 2 4 3 1 4 3 4 5 4 3 1 3 2 2 0 0 2 2 2 1 3 3 3 5 5 4 3 2 3 4 4 5 5 9 12 14 16 17 17 17 17 17 16 16 15 15 15 15 15 15 15 15 14 12 11 10 8 8 8 7 5 4 5 5 6 8 9 9 8 9 8 8 7 7 6 6 6 3 2 3 4 4 3 2 2 3
2 2 2 2 4 4 3 3 2 3 1 1 1 5 2 4 2 4 4 4 3 1 2 2 1 1 0 2 2 3 1 2 2 1 2 4 3 3 3 3 5 6 6 6 8 12 14 16 17 17 17 17 17 16 16 16 15 16 16 16 16 16 16 14 13 11 10 9 9 8 6 5 5 6 6 7 8 9 9 9 9 9 8 8 8 7 7 7 4 3 4 5 6 5 4 4 5
1 3 3 3 4 2 1 2 1 3 2 3 3 4 1 3 2 1 1 3 3 1 2 2 1 1 3 5 4 1 1 2 1 3 4 2 2 3 4 5 6 7 7 7 7 10 13 16 17 18 18 18 17 17 16 16 16 16 17 17 17 17 16 14 13 12 11 10 10 9 7 6 6 7 8 8 8 8 8 9 9 9 9 9 9 8 9 8 6 6 6 6 8 7 6 6 6
2 5 4 3 2 1 1 1 1 1 5 5 4 4 1 3 2 4 5 4 3 1 1 2 1 1 3 5 4 3 2 2 3 5 5 4 2 3 4 6 7 7 8 8 8 9 12 15 17 18 18 18 17 17 17 16 17 17 18 18 18 17 16 15 13 12 12 12 11 9 8 8 8 8 9 9 8 8 7 7 9 9 9 9 9 10 10 9 9 8 7 8 8 8 8 7 7
4 5 5 3 1 1 3 1 3 3 5 5 5 3 2 3 4 4 4 3 2 1 2 2 1 1 2 3 4 6 6 5 5 4 3 3 3 3 5 6 7 8 8 9 9 9 10 14 16 18 19 19 18 17 17 17 17 18 18 18 18 17 17 15 14 13 13 13 12 11 10 10 10 10 11 10 10 9 7 6 8 8 9 10 10 10 11 11 11 9 8 7 8 9 9 9 9
6 5 4 3 2 2 2 1 4 4 4 3 5 3 3 4 4 2 2 1 2 2 3 2 0 1 1 2 3 6 8 6 3 2 2 2 2 2 4 6 7 8 9 9 10 10 10 13 15 17 19 19 19 18 18 18 18 18 18 18 18 17 17 16 15 14 14 14 13 12 12 12 12 13 13 12 11 10 8 6 6 8 10 11 12 12 13 13 13 11 8 6 7 9 10 10 10
7 4 2 3 2 2 2 3 4 3 3 3 1 4 7 5 4 3 1 4 3 1 2 4 1 1 3 5 6 6 8 8 2 3 3 2 2 2 3 4 6 8 9 10 11 11 11 12 14 16 18 19 19 19 19 19 19 19 19 19 18 17 17 17 17 16 16 15 14 14 13 14 14 14 14 14 13 11 10 8 8 9 11 12 13 14 15 15 14 13 9 6 7 9 9 9 9
6 3 1 2 2 3 4 3 3 3 4 2 3 6 8 5 3 2 1 3 3 1 3 5 3 3 5 7 7 6 7 8 3 3 4 3 4 4 4 4 6 7 9 10 11 11 11 12 14 16 18 19 19 19 20 20 21 20 20 19 18 18 17 18 18 18 18 17 16 15 15 15 15 15 15 15 14 13 12 11 10 11 11 13 15 16 17 17 16 15 10 6 7 8 8 8 7
4 2 1 3 3 2 3 4 4 5 5 3 4 6 6 5 3 2 2 3 5 3 3 5 2 3 5 6 8 7 8 10 5 3 5 4 4 5 5 4 5 6 8 10 11 11 12 13 13 15 17 19 20 20 20 21 21 21 21 19 19 18 18 18 18 19 19 18 17 17 16 16 16 16 17 16 15 14 13 12 12 12 13 15 17 18 18 17 17 15 10 7 7 7 7 6 5
3 2 2 3 1 2 3 4 6 6 6 3 2 3 4 4 3 2 4 3 7 8 2 3 1 2 1 3 7 8 8 10 7 5 6 5 4 5 5 5 6 6 8 9 11 12 12 13 14 15 16 18 19 20 20 21 22 22 21 20 19 19 19 19 20 20 20 19 18 18 19 18 18 18 18 17 15 14 13 13 12 13 14 15 17 18 17 16 15 12 8 6 6 6 6 5 4
3 2 4 1 2 2 3 4 5 5 5 2 1 1 3 2 2 0 3 4 8 7 1 2 2 3 3 6 9 11 10 10 9 7 8 7 6 6 6 6 6 7 8 9 10 12 13 14 15 15 16 17 19 20 20 21 22 22 22 22 21 20 21 21 21 21 21 20 18 19 20 20 19 19 18 17 15 14 14 13 13 13 13 13 15 15 14 13 11 8 7 6 6 6 5 4 4
4 4 3 1 2 1 2 3 3 2 3 3 3 2 2 0 0 2 3 5 8 3 3 1 6 6 5 6 7 9 8 8 9 10 10 9 9 10 9 7 7 8 9 9 9 11 13 15 16 16 17 18 19 20 21 21 22 22 22 22 22 21 21 22 21 21 21 20 19 20 20 21 21 20 19 18 16 16 15 13 12 12 12 11 12 12 12 11 8 7 7 7 7 7 6 5 4
4 5 3 1 3 3 2 3 2 3 2 5 4 2 2 2 2 3 3 3 6 4 5 7 7 5 4 4 5 7 8 9 9 11 11 11 13 14 13 10 9 10 10 11 11 11 12 14 16 17 18 19 19 20 21 21 22 22 22 22 22 21 21 22 21 21 21 20 20 21 21 21 21 21 20 19 19 17 16 14 12 12 11 10 10 10 10 9 8 8 8 8 8 7 6 6 5
3 3 4 1 2 2 2 2 1 3 3 4 5 3 3 4 2 3 4 5 8 9 11 11 9 9 10 13 15 16 17 16 13 13 15 16 17 17 16 12 11 12 12 13 13 13 13 14 16 18 19 20 21 21 21 22 23 23 23 22 22 21 21 21 20 20 21 21 21 22 22 22 21 21 21 21 20 19 17 14 12 12 12 11 10 9 8 8 8 8 9 9 9 8 7 6 6
1 2 4 1 2 1 3 2 2 0 4 4 3 3 1 2 1 3 6 8 11 14 16 16 14 15 19 21 22 21 22 21 18 18 18 18 18 17 17 14 13 14 14 14 14 15 15 15 16 18 19 20 21 22 22 23 23 24 24 23 22 22 22 21 20 20 21 22 23 23 22 22 22 22 22 22 21 20 18 14 13 13 13 12 10 9 9 9 9 9 10 10 9 8 7 7 7
2 2 3 1 3 3 4 3 3 1 3 4 2 1 3 2 5 6 6 9 13 16 22 22 18 19 20 22 22 23 24 24 23 21 21 20 18 18 17 16 15 15 15 16 15 16 17 17 17 17 19 19 21 22 23 23 24 26 25 25 24 23 23 22 22 21 22 24 24 24 24 23 23 23 23 22 21 20 18 16 14 14 14 13 11 10 9 10 10 10 10 10 10 9 8 8 7
4 2 2 3 5 5 6 6 8 5 3 6 5 5 5 4 9 10 5 10 13 13 21 24 21 22 20 18 19 19 19 21 24 23 23 21 20 20 19 19 19 18 17 16 15 16 17 18 18 18 18 19 20 22 23 23 25 27 27 26 25 25 24 24 23 22 23 25 26 25 25 25 25 24 24 22 21 21 20 17 15 15 15 14 13 12 11 11 12 11 11 11 11 9 9 9 8
6 4 2 6 6 6 13 14 14 13 9 6 6 7 9 11 12 10 7 11 12 10 16 20 23 27 22 18 18 18 18 16 18 21 22 22 22 22 21 22 22 21 18 16 14 14 16 18 19 18 18 19 21 21 22 23 24 27 28 27 27 26 26 26 25 25 24 25 26 27 27 27 26 26 24 23 22 21 20 19 17 16 16 16 15 14 13 13 13 13 13 12 11 10 10 10 9
5 6 4 7 5 5 13 16 18 20 13 9 9 10 11 13 13 11 10 9 7 12 19 20 26 33 28 24 23 24 23 19 18 20 22 23 24 23 23 24 23 21 18 16 14 14 15 16 17 18 19 20 21 22 22 23 23 25 27 28 28 28 28 27 27 27 26 26 27 27 28 27 27 26 25 24 23 22 21 20 18 17 18 18 17 16 15 15 15 14 14 14 13 12 12 11 11
4 6 11 11 7 5 11 16 18 19 16 12 11 9 11 14 15 16 11 8 11 19 25 25 30 34 32 29 27 26 26 25 24 22 23 24 24 24 24 24 22 20 18 17 16 14 14 14 15 17 19 21 21 22 22 23 24 24 26 27 28 28 29 29 29 29 29 28 28 28 28 28 28 27 26 26 24 23 22 20 19 18 18 19 18 17 17 17 17 15 15 15 14 13 13 13 12
5 6 11 15 15 9 13 19 19 21 16 12 11 11 14 13 17 20 13 16 26 30 31 30 32 33 33 31 29 28 27 26 25 23 23 23 23 24 23 24 22 20 19 18 16 15 14 13 13 15 18 20 21 22 23 24 25 25 25 26 27 27 28 30 31 31 30 30 30 29 29 29 28 28 27 26 25 23 23 22 20 19 19 20 20 19 18 18 18 17 17 17 16 16 15 14 13
8 5 6 13 15 12 15 19 20 19 15 15 16 16 14 10 14 18 18 27 35 34 31 30 30 30 30 30 28 27 25 23 22 21 21 21 22 22 22 22 21 19 19 17 15 15 15 13 13 15 17 18 20 22 23 24 25 25 26 27 27 27 27 29 29 30 32 32 31 31 30 30 30 29 28 27 26 25 24 23 22 20 20 21 21 20 20 20 19 18 19 19 18 17 17 16 15
6 5 4 6 9 12 16 19 21 22 22 23 20 18 18 16 17 18 25 34 33 28 27 25 24 25 25 25 23 22 21 20 19 20 20 21 21 20 21 21 20 19 19 17 16 17 16 15 14 16 16 17 19 21 23 24 25 26 27 27 27 28 28 28 27 27 30 32 33 33 32 32 31 31 30 28 27 26 25 24 23 21 21 22 22 21 21 21 20 20 20 20 19 18 18 17 17
4 5 7 8 11 15 18 20 24 26 28 25 15 17 22 20 15 15 26 30 25 26 27 24 22 23 24 23 22 20 19 18 18 20 21 21 20 20 20 20 20 19 18 18 19 19 18 18 18 17 16 16 18 21 23 24 25 27 28 28 27 28 28 28 27 26 27 29 32 33 33 33 33 32 31 30 29 28 26 25 24 22 22 23 23 23 22 22 21 21 21 21 20 19 19 19 18
8 11 13 13 14 20 21 20 29 29 26 26 13 13 24 18 6 9 24 25 23 27 27 26 24 23 25 24 23 21 20 20 20 21 21 21 21 20 20 19 19 18 17 18 19 19 18 19 20 19 18 17 17 19 21 23 25 27 28 28 28 28 28 28 29 28 27 27 28 30 32 33 33 33 33 32 31 29 28 26 24 23 23 24 24 24 23 22 22 22 22 22 21 20 19 20 19
10 12 12 15 15 21 23 19 30 25 15 22 14 11 21 11 4 14 26 24 23 28 27 27 24 22 23 23 23 22 21 21 20 20 19 18 18 18 18 17 18 16 16 17 17 17 18 19 19 19 19 19 19 19 19 21 23 26 28 29 30 30 29 29 30 29 29 27 27 27 29 30 30 31 31 32 32 30 29 27 25 24 24 24 24 24 23 23 23 23 22 23 22 21 21 21 21
12 10 6 11 9 13 22 18 25 18 7 15 9 5 11 4 9 21 25 24 24 26 25 24 22 21 21 20 21 22 21 19 16 15 13 12 13 14 14 15 16 15 14 14 14 15 17 18 18 19 19 19 20 19 19 20 22 24 27 29 30 31 31 31 31 30 29 28 28 27 27 28 29 29 29 30 30 30 29 28 26 25 24 24 24 24 24 24 25 25 24 24 24 23 23 23 23
11 7 0 7 6 6 17 15 16 12 6 10 9 2 7 7 16 22 20 22 22 20 20 23 25 26 25 23 25 21 16 13 9 6 5 5 6 8 10 10 11 12 12 11 11 11 12 14 16 17 18 19 19 19 19 20 20 22 25 28 30 31 31 32 31 31 30 29 29 28 28 28 29 28 28 29 29 29 29 28 27 26 25 24 24 24 25 25 25 26 25 26 26 25 25 24 24
6 3 1 3 2 5 13 11 9 6 4 10 13 3 7 7 15 19 16 18 19 18 24 30 30 28 28 27 23 13 8 8 5 3 2 1 3 6 7 6 6 7 9 9 9 8 8 9 12 14 16 17 17 18 18 18 18 20 23 26 28 30 30 31 31 30 30 29 29 29 29 29 29 29 29 29 29 29 29 28 28 27 27 26 25 25 25 26 26 26 26 27 27 27 26 26 25
2 2 3 2 3 4 11 13 9 4 2 7 9 3 6 7 14 18 15 19 21 22 29 32 25 24 24 18 11 6 8 9 6 4 4 3 2 3 4 4 4 5 7 7 8 8 6 6 8 10 12 14 15 16 16 16 17 18 21 24 26 28 29 30 30 29 29 29 30 30 29 29 29 29 29 29 29 29 30 29 28 28 28 27 26 26 26 27 26 26 27 27 28 28 27 27 27
2 2 3 4 4 3 5 10 7 4 3 1 4 3 4 5 11 16 16 21 23 24 31 27 19 19 13 11 13 12 10 8 6 7 7 5 3 1 2 3 3 4 6 7 8 7 5 6 7 8 9 11 12 13 15 15 16 17 19 21 24 26 28 28 28 28 28 29 29 29 29 29 29 29 29 30 30 30 31 30 29 29 29 28 28 28 28 28 28 28 28 28 29 29 29 28 28
4 2 3 4 5 4 3 7 6 2 3 3 4 4 6 7 10 16 20 24 25 25 28 24 18 11 11 15 16 16 14 12 12 12 10 9 6 6 6 7 7 6 6 6 6 5 5 5 5 6 7 9 10 11 13 14 16 17 18 19 21 24 25 26 26 26 27 28 28 29 29 29 29 29 29 30 30 31 31 31 30 30 30 30 31 31 30 30 30 30 30 29 29 30 30 30 29
4 4 4 5 5 4 5 5 5 3 3 4 5 6 9 9 10 19 26 27 25 22 24 21 11 11 17 17 20 20 18 18 17 14 11 9 7 7 8 8 8 6 4 3 3 5 6 5 5 5 6 8 8 10 11 13 15 16 17 18 19 21 22 23 23 24 25 26 27 27 28 29 29 29 29 30 31 31 32 32 32 32 32 32 33 33 33 34 33 32 31 30 30 31 31 31 31
7 7 5 5 5 5 6 7 6 6 5 5 7 8 7 8 9 15 26 27 19 19 21 12 8 18 20 21 23 22 22 22 18 14 12 10 8 7 5 4 3 1 3 4 4 4 5 5 4 5 5 6 6 7 9 10 13 14 15 16 17 19 20 21 22 22 23 24 25 26 27 28 28 28 29 30 30 31 32 33 33 33 33 34 34 35 36 36 35 33 32 31 31 32 32 33 33
8 7 6 6 5 5 6 6 7 6 4 6 7 6 6 8 7 13 26 25 17 17 13 6 18 20 21 24 24 23 23 22 18 16 16 15 13 12 10 8 6 4 5 5 4 3 3 2 2 4 4 4 5 5 5 7 9 11 13 13 14 15 16 18 20 21 22 22 24 25 25 26 26 27 27 28 30 31 31 32 32 33 34 35 35 36 36 36 36 35 34 33 32 33 34 35 35
7 6 5 5 4 6 5 6 8 6 3 5 5 6 7 9 9 18 23 15 11 7 7 16 20 21 22 23 23 24 23 21 21 21 21 21 20 20 19 18 17 15 12 9 7 6 5 4 5 7 6 5 6 5 4 6 7 8 10 11 12 14 14 15 16 17 18 19 21 21 22 23 23 24 25 26 27 28 29 30 31 32 33 34 35 36 36 37 37 36 36 35 34 34 35 36 36
6 4 4 4 4 4 5 5 6 5 2 4 6 6 7 9 12 16 11 8 12 15 21 19 20 23 21 22 23 23 24 24 25 26 26 26 25 26 27 28 28 26 24 21 19 17 15 14 13 10 7 6 6 5 5 5 4 4 5 7 8 10 11 12 12 13 14 15 16 18 19 20 20 21 22 23 25 25 26 27 28 29 31 33 34 36 36 37 37 37 37 36 35 35 36 37 38
4 4 4 5 4 2 4 5 6 5 2 3 5 6 5 8 9 7 10 16 19 22 25 24 24 25 22 22 23 24 26 26 27 28 28 28 29 30 31 32 31 31 31 30 28 27 25 24 21 18 14 11 9 7 6 6 4 3 3 3 3 4 5 6 6 7 8 9 11 12 13 14 15 16 17 19 20 22 23 24 25 26 28 31 33 35 36 37 37 37 38 37 37 37 38 38 39
3 4 4 5 4 3 5 4 5 5 4 2 4 6 4 6 6 2 8 13 17 18 21 23 22 23 23 24 24 25 26 27 28 29 29 29 30 31 32 32 32 33 33 32 31 30 29 28 26 24 22 19 17 15 12 9 7 5 4 4 3 3 3 3 3 4 4 5 6 6 7 8 9 11 12 14 15 17 18 19 21 24 26 28 31 33 35 36 37 37 37 38 38 38 39 39 39
4 4 6 6 5 4 3 3 5 5 5 3 5 5 5 5 5 3 4 7 9 11 14 17 17 19 22 24 24 24 25 26 28 28 29 29 30 30 31 31 32 33 33 31 30 30 29 29 28 26 25 24 22 21 20 18 15 12 8 5 4 3 3 2 1 1 1 1 2 2 2 3 4 5 7 8 10 11 13 14 17 20 23 26 28 31 32 34 35 36 37 37 38 38 38 39 41
3 4 5 6 5 3 1 4 4 2 2 3 4 1 6 3 6 7 4 7 5 7 9 11 15 17 20 22 22 22 24 25 27 28 28 29 29 29 30 30 31 32 31 29 28 28 29 28 27 27 26 25 24 23 22 21 20 19 17 14 10 7 4 3 2 3 4 4 5 5 5 4 2 1 2 3 4 6 8 10 13 16 19 22 25 28 30 32 33 34 35 36 37 37 37 40 41
3 5 5 6 4 1 1 3 1 3 2 5 2 4 4 3 7 9 5 8 3 5 6 7 13 16 18 20 19 21 22 24 26 28 28 29 29 29 29 29 29 29 28 26 26 26 26 26 26 25 25 24 23 22 21 21 21 21 20 18 15 12 9 5 3 4 5 5 6 7 8 8 6 4 3 2 1 2 4 6 9 12 15 18 21 25 27 28 30 32 33 34 35 36 37 39 40
5 5 5 4 2 2 2 3 2 2 1 5 5 4 2 4 6 4 5 6 2 4 4 5 9 13 16 17 17 18 21 23 25 26 28 28 28 28 28 27 26 25 24 24 25 24 23 23 22 22 22 23 22 21 20 20 21 21 20 19 18 16 14 11 7 6 6 7 7 8 9 10 9 8 7 6 4 3 2 3 5 8 10 13 17 20 23 25 27 29 31 33 33 35 36 37 39
4 4 3 4 2 1 2 4 2 1 1 4 6 4 2 5 5 2 3 4 5 4 4 5 9 13 15 16 17 17 19 23 23 24 26 26 26 26 25 24 24 23 22 22 21 21 20 20 19 19 21 21 20 19 19 19 19 19 19 19 18 18 16 15 13 11 10 9 9 9 10 10 10 10 9 9 8 7 6 4 4 5 7 9 12 15 18 21 24 27 29 31 32 33 34 36 38
4 5 4 6 5 3 2 2 3 3 2 6 8 7 5 3 5 2 2 3 8 8 5 6 9 12 14 15 17 17 19 23 22 23 25 24 24 23 22 22 22 21 20 18 18 18 18 18 17 18 19 19 18 18 17 17 17 18 18 18 18 18 17 16 15 15 14 13 11 10 10 9 9 9 10 10 10 9 9 8 6 5 5 7 9 11 13 16 19 22 25 28 30 32 33 34 36
5 5 4 4 4 4 4 4 3 2 4 7 6 6 7 4 5 4 2 2 6 9 8 9 9 12 14 15 16 17 19 22 22 22 23 22 21 20 19 19 19 18 17 16 17 16 16 17 16 16 17 17 17 16 16 16 16 17 18 18 17 17 17 16 16 16 16 15 14 12 11 9 8 8 9 9 10 10 10 10 9 8 7 7 8 9 11 12 15 17 21 24 27 30 31 33 35
5 4 5 3 2 3 2 2 0 2 6 5 3 3 4 6 6 2 4 7 4 7 10 13 14 15 15 15 16 17 19 21 21 20 20 19 18 17 17 16 16 15 15 15 15 15 15 15 14 15 16 16 16 15 14 14 15 16 17 17 17 16 16 16 16 16 15 15 15 14 13 12 11 9 9 9 9 10 11 11 11 10 9 8 8 9 10 11 13 15 17 20 23 26 29 31 34
5 4 4 4 2 1 3 3 2 3 5 5 3 1 0 4 4 3 5 6 8 16 20 20 20 19 17 16 17 18 19 20 19 18 17 16 16 15 14 14 14 13 13 13 13 13 13 13 14 14 15 14 13 13 12 13 14 15 15 15 15 15 15 15 15 15 15 14 14 14 14 14 14 13 12 11 11 10 11 11 11 11 10 10 10 10 11 11 13 14 16 18 20 23 25 28 31
4 4 5 5 4 4 3 3 3 3 5 4 2 0 2 3 1 3 6 9 16 22 23 22 21 19 17 16 17 18 19 18 17 15 14 14 13 12 12 12 12 11 11 11 11 11 11 12 12 12 12 12 11 11 11 12 13 13 13 14 14 14 14 14 14 14 14 14 14 14 14 14 14 14 14 14 13 13 12 11 11 11 11 11 11 11 12 12 13 15 16 17 19 20 22 25 27
2 3 4 2 3 4 2 3 4 3 4 4 2 2 3 3 2 4 7 11 15 19 20 20 18 16 16 16 16 17 17 16 14 12 12 11 10 9 9 9 9 9 9 9 9 10 9 10 10 10 10 10 10 11 11 11 11 11 11 12 12 13 13 13 14 14 14 14 14 13 13 14 14 14 14 14 14 14 14 14 13 13 13 13 12 12 12 12 14 15 16 18 19 19 20 23 25
1 2 2 4 4 5 2 4 2 2 3 4 2 2 2 2 2 2 5 7 9 10 13 15 15 14 15 15 15 16 14 12 11 9 8 7 7 6 6 7 7 7 7 7 8 8 8 8 8 8 8 8 9 9 10 10 10 10 11 11 11 11 12 12 13 14 14 14 14 14 14 14 13 14 14 14 14 14 14 14 14 14 14 14 14 14 13 13 13 15 16 18 19 19 21 22 23
3 2 4 3 1 3 2 1 2 1 4 4 2 4 4 2 2 0 3 5 5 5 7 10 12 13 14 14 15 13 11 9 7 6 5 4 4 4 5 5 6 6 6 7 7 8 8 8 8 8 8 8 9 8 8 8 9 10 10 11 11 11 11 11 11 12 13 13 13 15 16 16 17 17 16 16 15 15 15 14 14 14 15 15 15 16 16 15 15 15 15 16 18 19 21 23 23
4 3 3 1 1 1 0 1 2 3 4 4 5 6 5 4 4 3 4 5 6 5 5 7 8 11 13 14 13 10 8 5 3 3 2 2 2 2 3 4 5 6 6 7 8 8 9 9 9 10 10 10 10 10 9 9 9 10 10 10 10 10 11 11 11 12 12 12 13 13 15 16 17 18 19 19 19 18 18 17 16 16 16 16 16 16 17 18 18 18 17 17 17 18 21 23 23
3 2 2 1 3 3 2 2 3 3 4 4 5 6 4 3 4 5 7 8 8 7 5 5 8 12 14 13 10 7 6 3 2 3 4 3 3 2 2 2 3 5 6 7 8 9 10 11 11 12 13 13 13 13 13 13 13 12 11 11 10 10 10 10 11 12 13 14 14 14 14 15 16 17 19 20 21 22 22 21 20 19 18 18 18 18 18 19 19 20 19 19 19 18 20 21 22
2 1 1 1 1 1 1 2 2 3 4 4 5 6 4 2 2 4 7 8 8 8 7 6 10 14 14 11 8 6 5 4 5 6 6 5 5 4 4 4 4 6 6 8 9 10 11 12 12 13 14 15 15 16 16 17 17 17 16 16 15 15 14 14 14 14 14 14 15 15 15 16 16 17 18 19 20 21 23 23 23 23 22 21 20 20 20 21 21 21 21 21 21 22 22 22 22
4 3 3 3 1 0 3 4 2 3 4 4 5 6 4 2 1 1 5 7 7 10 11 10 15 16 13 10 7 6 6 6 7 8 7 6 5 4 5 6 6 7 8 8 9 10 11 13 14 14 15 16 17 17 18 18 19 19 19 20 20 20 20 21 20 20 20 19 19 19 19 19 19 20 21 21 21 22 22 24 25 25 25 24 23 23 22 23 23 23 23 23 23 24 25 25 25
Wind_Direction
312 319 321 303 313 349 17 11 16 337 55 29 292 134 277 274 109 49 60 69 76 69 7 351 245 263 300 258 227 245 244 210 187 151 180 187 150 216 198 211 226 192 178 189 199 200 199 200 202 204 208 209 209 212 214 217 213 201 195 192 189 186 180 179 179 178 177 174 174 170 164 164 169 178 180 178 171 167 166 163 160 149 144 153 157 154 166 178 173 164 107 192 204 94 92 87 88
318 320 318 292 319 6 351 9 60 345 41 13 301 148 271 342 56 86 116 118 155 216 342 2 306 239 247 266 265 278 265 226 205 159 158 159 140 159 176 226 225 204 206 198 204 206 203 202 204 205 207 208 209 212 214 215 211 204 199 195 192 189 185 184 184 182 179 179 179 174 172 178 188 201 196 188 179 173 170 166 161 153 152 156 163 165 171 185 182 165 220 225 225 224 140 133 149
328 324 319 285 17 7 338 19 90 73 58 36 291 273 18 47 76 148 145 137 152 14 3 24 13 344 184 285 252 233 205 134 155 150 151 162 159 168 209 233 222 221 219 213 209 211 210 205 206 207 208 209 209 211 214 215 211 205 201 198 195 193 192 190 188 185 183 184 186 186 190 198 211 201 185 183 176 170 165 164 162 159 159 158 166 172 180 193 190 202 240 238 237 239 223 203 214
7 28 10 20 48 15 4 48 132 115 70 239 280 306 7 102 134 161 148 136 146 33 44 94 7 286 291 281 257 257 239 106 119 218 177 176 180 207 229 225 225 224 220 223 215 214 214 210 209 209 210 212 212 212 213 214 212 208 204 201 199 198 197 196 193 189 185 189 194 198 205 209 206 182 169 176 173 165 163 164 163 162 165 168 174 176 189 198 202 234 249 249 243 241 237 224 224
72 96 62 46 47 11 63 58 83 91 257 198 133 295 307 114 115 65 60 130 151 92 81 121 239 273 273 267 262 249 162 143 240 289 286 260 242 225 220 221 225 222 221 229 223 220 217 214 213 211 213 215 217 215 214 214 212 210 208 205 203 203 202 200 199 195 191 194 200 205 210 201 195 186 180 185 177 168 169 171 168 168 172 176 181 189 201 211 229 243 248 248 249 247 239 231 230
88 94 67 45 39 317 73 56 319 292 244 174 143 254 206 112 104 33 34 118 141 66 98 143 188 292 277 271 258 230 197 224 273 293 298 305 292 233 225 225 225 221 219 227 231 228 220 218 216 215 215 217 220 219 217 215 213 212 210 209 208 207 207 206 204 203 201 202 207 211 213 199 191 192 192 197 190 181 183 181 182 184 186 192 195 206 220 234 250 254 249 246 251 251 244 239 238
89 74 41 25 16 352 90 155 243 242 250 178 155 209 165 108 89 43 26 95 144 135 135 141 171 303 289 280 250 244 238 249 274 298 316 318 296 258 241 231 229 226 218 222 231 232 227 222 218 218 218 219 221 221 221 218 216 215 213 212 211 211 211 211 210 209 209 209 213 217 215 200 192 194 198 203 201 198 201 196 201 209 212 217 224 233 246 257 266 268 260 253 252 252 251 249 249
70 48 34 47 38 20 76 262 251 205 255 223 162 146 124 96 77 49 353 354 273 223 168 174 103 38 296 298 275 257 230 231 254 278 328 353 327 284 260 247 239 232 223 222 226 231 232 227 221 220 221 222 223 223 222 222 221 219 217 217 215 214 215 215 214 214 214 216 219 221 214 198 196 199 203 210 211 209 211 220 225 230 235 238 242 249 258 267 275 277 272 264 253 252 255 256 258
65 39 36 62 42 7 354 308 287 242 267 278 119 108 106 88 80 97 308 314 314 279 178 192 157 57 287 308 302 276 226 220 230 262 304 353 355 332 288 265 247 238 231 226 224 227 230 233 227 223 224 225 227 226 224 223 224 223 222 221 220 218 218 218 217 218 220 223 225 223 211 199 201 205 210 215 218 219 222 238 245 243 246 249 251 253 258 264 272 278 278 268 252 251 255 258 260
62 39 18 69 59 6 334 304 289 293 296 308 49 89 100 75 69 89 300 300 317 352 148 183 204 241 281 303 297 282 226 219 224 254 270 305 336 341 322 287 256 245 236 232 229 226 228 235 234 228 226 227 229 229 227 225 225 226 226 224 223 222 221 222 220 222 225 227 228 223 211 204 208 210 215 218 221 227 232 243 252 256 258 258 257 256 257 259 263 271 274 257 246 248 248 249 249
48 358 342 58 41 359 289 291 291 288 296 319 42 63 84 63 50 14 6 323 318 326 169 177 225 269 279 282 285 284 236 226 224 240 255 268 316 336 332 302 271 258 243 240 238 233 229 231 237 235 230 229 231 231 230 229 228 228 229 227 224 223 224 225 225 227 229 230 231 224 212 207 211 211 218 222 224 231 238 248 259 268 270 265 262 258 257 258 258 264 266 245 237 237 230 226 217
28 342 48 71 76 229 242 285 294 295 322 353 19 45 79 61 58 4 18 353 333 344 278 194 319 323 281 268 288 286 240 233 236 236 245 246 286 324 330 304 281 271 252 247 243 239 234 232 234 237 236 233 233 233 233 232 231 230 230 230 228 225 225 227 228 230 233 233 232 225 212 208 212 215 221 224 228 235 244 254 267 275 272 267 262 260 258 258 256 256 253 239 231 219 205 195 191
9 11 66 104 217 245 288 288 294 322 345 350 237 124 105 63 70 298 4 344 327 348 62 138 341 315 274 273 283 278 253 244 246 246 242 241 272 304 319 306 284 273 265 257 250 245 238 235 234 235 238 238 237 236 235 234 233 232 230 231 230 228 227 229 230 231 233 233 231 224 213 208 214 219 223 228 233 240 247 257 270 273 267 263 260 256 253 253 249 240 234 227 214 199 185 182 191
5 8 70 208 304 317 280 282 297 1 312 267 212 153 106 32 134 293 327 323 312 312 158 268 308 302 284 273 271 270 269 264 256 252 243 244 269 289 303 301 285 274 271 268 259 252 244 239 236 235 237 237 239 239 238 237 235 234 232 231 230 229 229 231 232 230 232 231 226 221 214 211 215 221 226 233 240 245 251 260 268 266 258 258 257 249 244 244 234 221 216 206 198 190 182 185 196
2 360 71 123 338 332 256 237 226 118 263 250 188 173 37 358 271 282 290 278 295 269 263 298 289 275 268 252 256 269 292 290 265 255 251 255 269 282 290 288 282 274 270 271 265 257 250 244 239 235 235 235 237 239 241 240 238 237 235 233 231 230 229 232 231 229 230 228 223 219 217 217 219 224 230 237 244 249 255 262 263 256 250 251 250 244 238 232 221 213 206 198 196 190 185 189 196
6 7 64 47 306 326 255 231 71 80 278 249 185 196 29 8 246 241 280 268 273 273 278 286 271 267 267 268 279 284 287 283 268 261 260 265 272 278 284 281 274 271 268 267 266 262 253 249 245 239 237 236 236 237 241 242 240 239 238 236 234 232 232 232 230 227 228 224 220 220 220 221 221 225 232 239 246 253 258 261 257 250 246 244 242 239 232 222 216 209 205 202 199 192 189 192 195
42 56 71 349 245 220 243 233 18 35 266 272 193 196 72 3 308 250 283 278 275 282 283 279 274 274 275 282 293 292 285 278 270 267 268 272 276 277 280 279 273 272 271 266 265 263 257 251 248 246 243 239 238 238 239 242 241 239 239 237 235 235 234 233 230 227 226 221 219 221 222 221 221 225 234 242 248 255 259 257 252 248 245 242 241 238 228 220 216 210 208 207 202 196 193 196 199
139 88 109 243 223 206 213 209 313 281 260 303 284 20 57 28 343 320 292 275 276 287 287 283 279 275 280 292 295 287 283 279 272 271 273 276 277 279 282 283 280 277 275 270 263 260 258 255 250 248 248 245 243 241 240 241 239 238 238 238 236 235 235 234 231 227 223 221 220 222 222 222 225 231 238 245 251 256 258 254 250 247 244 243 240 238 230 223 221 216 215 213 208 201 198 203 206
177 134 144 227 214 226 268 289 320 341 305 311 336 354 359 328 322 323 295 274 280 284 285 287 285 282 288 298 293 289 291 285 278 275 275 278 278 282 285 286 285 283 280 277 268 260 258 257 253 248 248 249 247 246 244 242 238 237 238 238 236 235 235 234 233 229 224 222 222 223 224 226 231 237 243 248 253 255 255 253 248 243 242 242 239 236 231 226 226 222 220 219 216 208 205 209 212
203 176 174 242 227 260 286 295 313 322 318 328 338 326 320 311 312 313 284 279 282 264 272 285 288 288 293 297 294 298 307 298 285 279 277 278 277 278 282 286 288 288 287 283 272 261 254 253 254 252 248 248 248 249 248 246 241 237 238 238 237 236 234 233 233 231 228 226 225 226 228 232 235 239 244 248 251 252 251 250 244 238 239 239 237 233 229 228 229 228 226 225 222 214 211 214 216
193 171 191 236 239 272 278 290 306 311 318 324 319 319 313 309 307 299 286 288 278 256 265 274 282 290 292 290 290 293 297 294 285 281 279 279 278 278 281 287 292 292 290 281 271 264 259 256 254 254 251 247 247 248 249 249 246 241 239 238 238 237 236 234 233 232 231 229 228 229 232 234 237 239 243 246 248 249 247 246 242 237 237 236 236 232 229 228 230 231 230 230 227 220 217 219 220
198 204 217 229 246 268 276 290 303 305 309 308 310 314 305 308 301 288 279 267 266 271 278 279 281 288 289 289 291 291 289 287 286 284 282 281 281 281 283 288 292 293 290 285 282 277 270 265 258 254 252 249 247 247 249 251 250 247 244 241 239 238 237 235 233 232 232 232 232 231 233 235 237 239 242 245 246 247 246 245 243 238 235 236 236 233 230 229 231 230 229 231 229 223 221 222 226
220 251 234 236 246 255 280 292 300 303 302 294 298 297 296 305 297 288 271 261 275 282 284 284 284 286 288 289 290 289 288 287 287 286 285 285 283 283 285 288 290 292 291 290 292 286 276 271 264 255 251 251 250 248 248 248 249 249 248 246 243 241 239 237 235 234 233 234 234 234 235 236 238 239 242 245 247 248 247 245 243 240 237 237 237 234 231 230 231 228 228 231 229 225 223 222 226
220 256 246 242 252 264 286 295 298 302 298 289 299 298 288 283 286 292 282 278 286 291 289 287 286 288 288 287 287 287 287 286 287 288 288 286 286 287 286 287 289 289 287 291 297 293 284 279 271 262 253 251 252 250 248 247 249 249 249 248 247 245 242 240 239 238 236 235 235 236 237 238 240 241 243 246 248 250 250 248 245 240 238 239 238 236 233 231 232 229 228 231 229 227 225 223 225
230 251 270 270 286 292 297 300 298 298 295 292 296 289 277 270 276 284 282 286 296 302 299 294 290 291 289 287 288 288 286 285 290 295 293 290 289 288 285 285 286 283 284 293 295 292 291 286 276 271 263 255 251 250 249 248 248 248 249 249 249 248 246 244 243 241 241 239 238 237 238 240 241 243 245 247 249 251 252 252 249 244 239 239 239 237 234 232 233 230 230 232 231 229 227 226 228
294 320 326 322 313 306 304 304 299 295 290 286 284 279 277 276 279 279 277 288 306 309 304 299 294 291 290 289 289 289 286 287 296 300 299 296 290 284 284 284 283 283 289 295 290 289 292 285 277 277 275 267 255 249 249 249 248 249 249 250 250 250 250 250 247 244 244 244 242 240 240 242 243 245 247 249 251 252 253 253 253 249 242 240 240 240 236 234 234 232 232 235 234 230 228 228 231
329 344 335 318 312 307 304 302 294 289 284 278 261 263 275 271 266 269 278 296 311 305 305 304 298 290 287 288 290 291 289 292 302 303 301 299 291 285 285 284 283 285 288 288 289 291 289 282 279 279 277 273 264 255 251 250 249 250 251 252 251 251 252 252 252 250 249 248 246 244 244 245 246 249 250 251 251 252 253 254 255 252 246 242 242 242 239 236 236 235 234 236 238 233 229 230 233
329 340 333 312 314 308 298 290 285 283 281 273 243 243 274 268 197 249 276 301 306 299 303 303 299 296 291 289 288 291 293 299 308 308 305 302 294 287 285 280 279 283 284 285 289 290 284 281 280 278 276 273 269 263 256 252 251 252 251 252 252 252 251 251 253 253 253 252 250 248 247 247 248 250 252 252 251 251 253 255 256 254 249 246 244 244 242 238 236 236 234 235 237 233 230 231 233
328 330 330 304 324 309 288 277 275 272 272 270 226 231 285 253 227 251 274 297 299 297 297 296 299 300 302 302 298 301 307 310 315 315 310 300 286 274 272 271 268 268 274 279 280 279 279 280 279 276 274 271 271 269 262 256 253 253 252 252 251 251 250 250 252 254 255 255 255 253 252 251 250 251 252 253 252 251 253 256 258 256 251 248 247 246 244 241 238 237 235 234 235 233 231 232 233
322 317 182 295 339 308 279 274 272 271 265 243 178 166 280 245 251 262 284 296 297 298 293 294 298 298 304 308 308 314 326 332 336 339 320 291 267 251 252 258 258 252 253 257 263 271 276 277 275 273 271 270 271 270 265 258 254 253 253 252 251 250 249 249 250 253 255 255 256 257 255 254 253 253 254 254 254 253 254 257 260 260 253 249 249 249 247 245 241 238 236 235 237 236 235 236 236
303 312 122 280 297 277 282 287 286 288 259 203 168 191 263 249 265 272 290 294 293 296 291 292 294 298 304 308 315 329 14 38 52 62 68 135 197 212 217 222 236 244 251 257 266 273 270 272 272 269 270 269 268 268 266 261 256 253 253 252 251 250 249 248 248 249 251 252 253 254 254 255 255 256 257 257 256 255 255 257 262 264 257 251 251 252 252 250 245 241 238 237 239 240 239 239 240
283 285 311 279 207 264 293 297 291 256 231 181 163 225 259 255 267 268 282 287 288 292 288 288 297 309 315 326 352 53 76 76 90 81 68 84 152 191 204 215 234 252 266 274 277 278 264 259 264 263 266 267 266 266 265 261 256 253 253 253 251 250 249 248 247 247 248 249 250 250 251 253 254 256 258 257 257 257 258 258 261 265 260 255 254 255 256 256 252 247 241 239 241 243 242 242 242
315 195 246 255 233 271 295 305 308 162 142 205 205 242 264 269 258 255 270 279 284 289 285 291 315 329 346 40 68 84 80 78 74 51 44 36 30 357 295 286 284 272 271 270 269 271 254 235 242 250 256 258 259 259 258 255 253 251 250 251 250 248 248 248 248 247 247 247 248 249 250 251 252 254 255 256 258 258 259 260 261 263 261 259 259 257 257 258 257 253 247 242 242 244 245 244 244
303 240 229 246 242 254 275 305 317 135 144 254 249 235 248 265 263 262 270 277 282 284 284 300 332 4 67 79 77 76 70 62 47 38 32 21 9 337 319 305 296 285 275 268 253 237 218 214 220 230 238 244 246 247 249 248 246 245 244 245 246 246 246 247 247 247 247 248 249 249 249 250 250 251 253 255 257 258 259 260 260 260 260 262 262 259 257 256 256 255 252 247 243 244 246 246 246
243 246 253 267 249 249 265 279 287 276 263 267 277 265 258 270 277 273 272 274 275 274 284 306 345 78 92 82 78 73 67 62 51 43 35 20 4 337 317 300 290 275 249 232 216 208 202 197 194 205 219 230 233 233 238 239 239 240 239 239 240 241 242 244 245 246 247 248 248 249 249 250 250 252 254 255 256 257 258 259 259 259 259 262 262 259 257 255 254 254 254 251 246 245 246 248 247
225 238 242 257 257 262 262 261 267 281 291 281 274 271 270 279 279 277 279 280 278 280 293 314 83 100 92 85 82 76 70 67 60 56 51 40 30 15 350 333 318 234 168 161 167 177 184 186 194 197 203 213 212 216 226 231 236 237 236 235 235 237 238 240 242 243 245 247 248 248 248 249 250 251 253 255 256 256 257 259 260 260 260 260 260 258 257 256 255 255 256 255 250 246 245 245 244
235 250 257 257 260 271 270 271 280 298 307 264 262 287 298 293 289 284 286 292 299 297 303 79 100 91 85 86 83 80 77 74 73 72 67 63 59 55 53 55 63 92 119 139 149 137 138 148 144 134 138 146 148 166 193 205 220 229 232 234 234 237 238 240 242 243 245 247 249 250 251 252 252 253 254 255 256 257 259 260 260 260 260 259 259 259 259 259 257 257 256 255 251 248 245 244 243
243 245 259 270 263 266 272 276 285 318 329 263 296 337 312 299 288 282 288 306 333 345 77 97 93 85 84 85 84 84 85 84 85 81 76 75 72 71 71 72 73 74 80 86 84 82 72 65 77 96 109 110 112 119 139 161 182 201 214 222 226 232 236 240 244 246 248 249 252 253 254 255 255 255 256 256 258 259 260 261 261 261 260 260 260 260 260 258 256 255 254 253 251 249 247 245 244
265 269 285 286 271 283 292 294 312 355 353 277 314 324 295 288 279 290 318 43 53 67 90 93 89 88 83 83 86 88 89 88 86 82 81 80 78 79 77 76 75 74 75 75 73 72 68 65 65 77 95 96 97 100 102 113 135 165 188 199 208 219 225 231 236 240 244 246 248 251 252 254 255 255 256 256 258 260 261 261 261 261 261 261 261 260 259 257 256 254 254 254 252 249 246 244 244
275 271 281 281 285 313 290 302 331 337 289 262 306 311 297 283 281 335 46 84 78 74 84 86 88 89 86 88 89 90 90 87 86 85 84 84 83 82 81 80 80 79 78 77 75 73 71 69 66 67 72 72 74 79 89 105 123 142 160 171 185 206 216 227 235 238 241 241 243 246 248 251 253 254 255 255 257 258 259 260 259 260 260 261 261 260 260 259 258 256 256 256 253 250 247 245 245
272 222 220 254 267 252 238 273 323 323 319 349 7 343 309 268 269 31 72 80 76 76 81 82 86 90 92 93 90 90 90 89 88 87 86 85 84 82 81 81 81 80 78 76 74 73 72 72 69 68 68 68 67 66 68 77 95 123 154 178 186 194 200 212 228 238 240 237 239 240 243 246 247 248 248 249 251 252 255 256 256 256 257 259 260 260 261 261 261 260 259 258 256 253 251 249 247
301 237 210 212 210 211 231 323 359 14 338 334 40 10 293 287 293 224 130 68 62 71 75 80 84 88 93 91 89 89 90 90 90 89 88 86 84 84 83 81 80 78 76 75 74 73 72 72 71 70 69 68 66 65 64 63 67 73 81 98 118 136 142 121 95 22 6 326 300 292 280 267 252 246 242 241 242 243 246 247 249 251 253 256 258 260 261 262 262 261 260 259 259 258 256 253 250
300 250 190 162 143 130 56 18 24 51 258 293 61 104 267 309 296 261 135 90 74 72 68 76 80 82 87 89 91 92 90 91 91 90 89 87 86 85 83 80 78 76 75 75 74 73 72 71 70 69 67 67 66 65 64 63 64 63 63 65 69 77 89 79 35 12 17 357 338 345 354 359 356 290 253 241 235 235 237 238 242 245 248 251 254 258 259 261 262 263 263 262 262 261 258 255 253
248 241 144 109 84 77 55 73 69 227 248 316 324 188 256 277 255 257 121 102 90 81 71 70 78 81 87 90 93 94 93 92 91 90 89 88 87 85 83 81 79 77 76 75 74 72 71 69 68 67 66 66 65 65 65 65 65 65 64 63 62 62 60 57 27 356 5 3 356 357 359 5 17 24 18 352 279 240 233 230 234 238 242 246 249 253 256 259 261 263 263 263 263 262 260 258 257
236 222 134 99 105 162 162 123 202 260 20 314 276 184 243 264 258 267 121 133 184 138 118 93 91 92 93 94 93 94 95 93 91 91 90 88 88 86 85 83 80 79 77 75 74 72 70 67 66 65 65 64 64 64 65 66 68 68 68 66 65 64 60 57 49 27 16 13 12 12 6 4 8 14 17 11 360 337 292 252 241 239 240 242 244 248 251 254 257 260 262 263 263 263 262 261 260
217 174 100 45 51 144 135 137 155 4 38 257 248 182 188 266 282 308 122 179 202 163 138 119 106 100 98 98 98 97 98 97 93 92 92 91 89 88 87 85 82 79 77 76 75 73 71 68 65 64 64 63 62 61 62 65 68 69 70 69 67 66 64 61 58 53 44 34 26 21 16 9 6 6 7 5 359 352 340 323 290 263 253 247 246 247 247 249 252 256 260 262 264 264 264 262 261
127 91 50 20 6 21 54 103 103 60 296 251 233 199 186 268 292 229 193 208 171 153 149 138 112 100 98 98 100 99 99 99 95 93 93 91 89 88 85 82 78 76 76 74 72 69 68 65 62 62 64 64 62 60 58 60 63 65 66 67 66 65 63 60 58 55 51 47 40 32 25 16 8 5 2 360 354 349 345 342 332 307 284 267 258 253 251 249 250 252 256 259 261 262 262 262 262
100 77 64 32 338 5 32 6 47 96 253 261 243 199 178 216 264 234 284 327 150 149 159 154 120 100 96 95 99 98 97 99 97 95 94 93 91 87 82 78 74 71 68 64 63 62 61 61 60 61 64 65 63 60 57 56 58 60 60 61 61 59 57 53 51 49 46 44 41 36 32 25 15 7 1 359 354 348 344 342 338 329 314 292 276 264 257 253 250 249 251 254 257 258 259 260 260
91 91 86 74 332 358 13 309 70 201 245 249 214 144 162 220 251 269 28 12 36 100 122 132 120 109 103 99 100 99 99 99 96 95 93 90 87 81 76 72 67 64 59 56 55 53 55 57 56 57 60 60 59 59 57 56 56 56 55 54 54 52 50 47 45 42 40 36 34 31 29 26 22 14 6 1 358 353 348 344 341 335 326 311 295 279 266 259 253 250 249 250 252 254 256 256 257
140 138 131 133 144 167 258 254 248 262 262 246 210 103 264 247 281 12 49 43 66 91 106 118 117 114 110 107 106 103 100 98 94 92 88 83 79 73 69 65 61 60 58 57 55 52 52 53 52 53 56 57 56 56 54 52 51 51 49 47 45 42 40 39 39 38 37 33 30 27 25 23 20 16 12 7 3 359 355 351 347 341 335 325 312 298 283 271 262 257 254 252 252 252 254 255 255
179 161 142 145 157 174 215 224 217 257 276 274 268 282 209 211 335 46 79 79 84 96 107 113 113 116 116 114 112 106 102 99 94 89 84 80 76 71 66 63 60 61 61 60 61 61 57 56 56 56 59 61 57 54 50 47 45 43 42 40 38 35 32 32 31 31 31 30 28 25 22 20 17 14 12 8 4 2 360 358 355 349 344 336 328 317 303 289 277 269 263 259 257 255 254 255 255
217 134 112 168 189 168 196 231 205 208 283 286 261 240 207 155 78 67 86 81 82 93 103 107 109 117 121 118 114 109 104 99 94 87 81 77 75 71 65 64 65 66 68 68 70 71 68 65 63 58 58 57 52 49 45 42 41 39 37 36 33 30 27 25 24 24 24 23 21 19 18 16 12 7 5 3 1 359 357 356 355 352 348 343 337 330 319 306 292 282 275 270 265 261 258 258 258
208 105 179 222 179 134 146 275 265 132 255 261 216 247 280 91 75 62 81 78 79 87 96 104 114 123 125 123 119 114 107 100 94 86 79 76 75 71 67 68 73 75 76 77 78 80 79 76 73 68 63 57 52 47 42 40 39 36 37 36 31 27 21 16 13 12 12 11 9 9 10 7 3 359 357 354 353 352 351 350 350 349 346 344 340 335 329 319 307 296 289 283 278 271 265 262 260
136 170 223 231 73 83 111 264 316 325 251 264 251 248 250 210 227 193 101 103 101 102 105 111 122 131 131 130 127 121 110 101 97 89 82 85 81 73 75 80 83 85 85 86 86 84 82 79 77 74 69 65 62 56 51 45 39 36 35 31 26 22 19 13 9 4 0 358 356 356 356 355 355 354 351 348 346 345 344 342 341 340 339 339 337 335 331 326 320 313 306 297 289 282 274 269 265
125 177 223 123 83 308 6 146 229 251 252 273 279 262 247 220 204 175 176 168 146 141 133 130 144 149 145 141 136 128 116 106 106 117 126 127 113 93 91 90 87 90 93 91 88 83 77 70 62 58 54 54 53 49 49 45 41 41 37 31 24 17 12 7 2 358 354 352 350 349 347 345 345 344 343 343 343 342 342 340 337 333 332 331 331 331 329 326 323 321 317 310 301 290 282 278 273
52 44 347 51 158 191 215 189 180 212 241 260 272 268 264 236 190 178 199 186 158 152 151 161 171 164 157 149 142 140 137 143 182 182 187 182 175 179 146 113 100 98 92 85 77 68 60 53 46 41 37 36 32 28 27 24 23 24 21 20 17 11 6 360 355 351 350 350 350 348 344 340 337 334 333 335 337 338 338 338 338 336 333 329 327 326 324 322 321 320 319 316 312 303 293 287 282
55 35 313 287 219 187 260 245 166 165 216 245 257 260 262 252 219 199 193 166 151 160 158 174 184 174 168 160 156 172 180 195 212 208 206 202 202 197 167 139 117 98 79 66 57 49 46 40 34 31 26 23 20 16 14 11 9 7 4 2 360 358 356 352 349 345 344 345 343 342 340 337 334 331 329 328 329 330 331 331 332 333 333 332 329 327 323 320 318 316 315 314 313 309 304 300 295
137 165 200 187 166 186 276 265 217 171 205 214 235 259 271 258 266 160 140 135 153 167 162 176 189 183 180 184 188 203 210 213 213 209 206 199 188 166 138 117 99 82 64 54 46 39 36 30 26 24 19 16 13 10 8 5 2 1 359 357 355 353 351 349 347 344 342 340 337 335 333 330 328 327 327 328 327 326 326 324 323 323 325 326 326 326 325 322 319 316 313 311 310 308 306 305 303